This demonstration page uses our WeatherBlox Daily Observations layout. Learn more.

36.17497, -115.13722

Hourly Observations for September 19, 2020

Temp ( °F °C ) Dew Point ( °F °C ) Humidity (%) Winds ( mph kmh ) Pressure ( in mb ) Visibility ( mi km ) Precip ( " mm )
12:53 am 00:53 Clear 88 31.1 34 1.1 15 15 S 6 9 29.8 1009 10 16.0934 0 0
1:53 am 01:53 Clear 86 30 39 3.9 19 19 S 7 11 29.8 1009 10 16.0934 0 0
2:53 am 02:53 Clear 84 28.9 40 4.4 21 21 SSE 7 11 29.79 1009 10 16.0934 0 0
3:53 am 03:53 Clear 83 28.3 42 5.6 24 24 S 8 13 29.79 1009 10 16.0934 0 0
4:53 am 04:53 Clear 84 28.9 42 5.6 23 23 S 10 17 29.79 1009 10 16.0934 0 0
5:53 am 05:53 Clear 82 27.8 42 5.6 24 24 SSE 6 9 29.8 1009 10 16.0934 0 0
6:53 am 06:53 Sunny 82 27.8 41 5 23 23 SSE 16 26 29.8 1009 10 16.0934 0 0
7:53 am 07:53 Sunny 85 29.4 43 6.1 23 23 S 13 20 29.82 1010 10 16.0934 0 0
8:53 am 08:53 Sunny 88 31.1 43 6.1 21 21 S 12 19 29.83 1010 10 16.0934 0 0
9:53 am 09:53 Sunny 92 33.3 43 6.1 18 18 S 9 15 29.83 1010 10 16.0934 0 0
10:53 am 10:53 Sunny 94 34.4 44 6.7 18 18 S 10 17 29.82 1010 10 16.0934 0 0
11:23 am 11:23 Sunny 96 35.6 43 6.1 16 16 WSW 15 24 29.67 1005 10 16.0934 0 0
11:53 am 11:53 Sunny 97 36.1 43 6.1 16 16 WSW 12 19 29.8 1009 10 16.0934 0 0
12:53 pm 12:53 Sunny 98 36.7 43 6.1 15 15 SW 17 28 29.79 1009 10 16.0934 0 0
1:53 pm 13:53 Sunny 99 37.2 42 5.6 14 14 WSW 15 24 29.76 1008 10 16.0934 0 0
2:53 pm 14:53 Sunny 99 37.2 40 4.4 13 13 SW 16 26 29.75 1007 10 16.0934 0 0
3:53 pm 15:53 Sunny 99 37.2 33 0.6 10 10 SW 15 24 29.73 1007 10 16.0934 0 0
4:53 pm 16:53 Sunny 99 37.2 30 -1.1 9 9 WSW 15 24 29.72 1007 10 16.0934 0 0
5:53 pm 17:53 Sunny 97 36.1 30 -1.1 9 9 WSW 14 22 29.73 1007 10 16.0934 0 0
6:53 pm 18:53 Clear 95 35 26 -3.3 8 8 WSW 12 19 29.75 1007 10 16.0934 0 0
7:53 pm 19:53 Clear 92 33.3 25 -3.9 9 9 WSW 10 17 29.76 1008 10 16.0934 0 0
8:53 pm 20:53 Clear 88 31.1 26 -3.3 10 10 WNW 5 7 29.78 1009 10 16.0934 0 0
9:53 pm 21:53 Clear 88 31.1 29 -1.7 12 12 NW 10 17 29.77 1008 10 16.0934 0 0
10:53 pm 22:53 Clear 87 30.6 31 -0.6 13 13 WSW 5 7 29.79 1009 10 16.0934 0 0
11:53 pm 23:53 Clear 83 28.3 27 -2.8 13 13 WNW 7 11 29.79 1009 10 16.0934 0 0

Powered by AerisWeather